STARLINK-4758 (53820 NORAD) Tracking and Keplerian Element Data

This shows tracking and keplerian element data for the satellite.

Feedback or suggestion? Click here.




ElementValue
Catalog53820
NameSTARLINK-4758
Epoch Orbit1046
Epoch Day325.33334491
Epoch Year2022
RAAN310.9307
Inclination53.2172
Eccentricity0.0001601
Argument of Perigee53.3011
Mean Anonmoly210.3161
Mean Motion15.13369026
Decay Rate-0.01144107
L11 53820U 22114C 22325.33334491 -.01144107 00000+0 -68819-1 0 9994
L22 53820 53.2172 310.9307 0001601 53.3011 210.3161 15.13369026 10465



Live tracking and technical data element details for STARLINK-4758 (NORAD 53820). STARLINK-4758 can be tracked NOW for your location showing map with azimuth and elevation plus other details from your city location.







IsCatalogInMostPopularTable: catalog: 53820, numindb: -1

Insert: records affected: 1


GetName: 53820 STARLINK-4758

Hit Count: inserted at: Thu, 08 Dec 2022 09:58:43 GMT